Weather History for KBXK - April, 2013

Change the Weather History Date:

Saturday, April 13, 2013

  Actual Average (KGYR) Record (KGYR)
Temperature  
Mean Temperature 71 °F -  
Max Temperature 89 °F 81 °F 95 °F (2006)
Min Temperature 53 °F 52 °F 46 °F (1998)
Cooling Degree Days 6    
Growing Degree Days 21 (Base 50)    
Moisture  
Dew Point 26 °F    
Average Humidity 19    
Maximum Humidity 39    
Minimum Humidity 9    
Precipitation  
Precipitation 0.00 in - - ()
Sea Level Pressure  
Sea Level Pressure 29.75 in    
Wind  
Wind Speed 6 mph (SSW)    
Max Wind Speed 20 mph    
Max Gust Speed 25 mph    
Visibility 10 miles    
Events      
Averages and records for this station are not official NWS values.
T = Trace of Precipitation, MM = Missing Value Source: NWS Daily Summary

Daily Weather History Graph

Daily Weather History Graph

Search for Another Location

Airport or City:

Trip Planner

Search our weather history database for the weather conditions in past years. The results will help you decide how hot, cold, wet, or windy it might be!

Date:

Astronomy

Apr. 13, 2013 Rise Set
Actual Time 6:02 AM MST 7:00 PM MST
Civil Twilight 5:37 AM MST 7:25 PM MST
Nautical Twilight 5:06 AM MST 7:55 PM MST
Astronomical Twilight 4:35 AM MST 8:27 PM MST
Moon 8:04 AM MST (4/13) 10:18 PM MST (4/13)
Length of Visible Light 13h 48m
Length of Day
12h 57m
Waxing Crescent, 11% of the Moon is Illuminated
Apr 13
Waxing Crescent
Apr 18
First Quarter
Apr 25
Full
May 2
Last Quarter
May 9
New

Hourly Weather History & Observations

Time (MST) Temp. Dew Point Humidity Pressure Visibility Wind Dir Wind Speed Gust Speed Precip Events Conditions
12:15 AM 64.4 °F 19.4 °F 18% 29.78 in 10.0 mi Calm Calm - N/A   Clear
12:35 AM 62.6 °F 19.4 °F 19% 29.79 in 10.0 mi Calm Calm - N/A   Clear
12:55 AM 62.6 °F 19.4 °F 19% 29.79 in 10.0 mi ENE 5.8 mph - N/A   Clear
1:15 AM 62.6 °F 23.0 °F 22% 29.78 in 10.0 mi East 5.8 mph - N/A   Clear
1:35 AM 62.6 °F 24.8 °F 24% 29.78 in 10.0 mi Calm Calm - N/A   Clear
1:55 AM 62.6 °F 23.0 °F 22% 29.78 in 10.0 mi East 3.5 mph - N/A   Clear
2:15 AM 62.6 °F 23.0 °F 22% 29.77 in 10.0 mi SE 3.5 mph - N/A   Clear
2:35 AM 62.6 °F 24.8 °F 24% 29.78 in 10.0 mi East 3.5 mph - N/A   Clear
2:55 AM 57.2 °F 17.6 °F 21% 29.78 in 10.0 mi NE 3.5 mph - N/A   Clear
3:15 AM 57.2 °F 15.8 °F 20% 29.78 in 10.0 mi NNE 4.6 mph - N/A   Clear
3:35 AM 55.4 °F 17.6 °F 23% 29.78 in 10.0 mi NE 5.8 mph - N/A   Clear
3:55 AM 55.4 °F 17.6 °F 23% 29.78 in 10.0 mi NNE 4.6 mph - N/A   Clear
4:15 AM 55.4 °F 17.6 °F 23% 29.78 in 10.0 mi NE 4.6 mph - N/A   Clear
4:35 AM 55.4 °F 17.6 °F 23% 29.78 in 10.0 mi ENE 4.6 mph - N/A   Clear
5:15 AM 53.6 °F 17.6 °F 24% 29.78 in 10.0 mi NE 4.6 mph - N/A   Clear
5:55 AM 55.4 °F 19.4 °F 25% 29.79 in 10.0 mi NE 3.5 mph - N/A   Clear
6:15 AM 53.6 °F 19.4 °F 26% 29.80 in 5.0 mi North 5.8 mph - N/A   Clear
6:35 AM 53.6 °F 21.2 °F 28% 29.81 in 2.0 mi NNW 5.8 mph - N/A   Clear
6:55 AM 57.2 °F 23.0 °F 27% 29.81 in 5.0 mi NW 5.8 mph - N/A   Clear
7:15 AM 59.0 °F 23.0 °F 25% 29.82 in 5.0 mi Calm Calm - N/A   Clear
7:35 AM 62.6 °F 23.0 °F 22% 29.82 in 8.0 mi Calm Calm - N/A   Clear
7:55 AM 60.8 °F 35.6 °F 39% 29.82 in 4.0 mi SSE 4.6 mph - N/A   Clear
8:15 AM 62.6 °F 37.4 °F 39% 29.82 in 8.0 mi SE 4.6 mph - N/A   Clear
8:35 AM 66.2 °F 35.6 °F 32% 29.82 in 9.0 mi East 6.9 mph - N/A   Clear
8:55 AM 69.8 °F 33.8 °F 27% 29.83 in 10.0 mi ESE 8.1 mph - N/A   Clear
9:15 AM 71.6 °F 32.0 °F 23% 29.83 in 10.0 mi ESE 6.9 mph - N/A   Clear
9:35 AM 73.4 °F 28.4 °F 19% 29.83 in 10.0 mi SE 4.6 mph - N/A   Clear
9:55 AM 73.4 °F 28.4 °F 19% 29.83 in 10.0 mi ESE 5.8 mph - N/A   Clear
10:15 AM 75.2 °F 28.4 °F 18% 29.83 in 10.0 mi SSE 3.5 mph - N/A   Clear
10:35 AM 75.2 °F 32.0 °F 21% 29.82 in 10.0 mi SSW 5.8 mph - N/A   Clear
10:55 AM 77.0 °F 32.0 °F 19% 29.82 in 10.0 mi South 5.8 mph - N/A   Clear
11:15 AM 77.0 °F 32.0 °F 19% 29.81 in 10.0 mi SSE 5.8 mph - N/A   Clear
11:35 AM 80.6 °F 32.0 °F 17% 29.81 in 10.0 mi SSE 5.8 mph - N/A   Clear
11:55 AM 80.6 °F 28.4 °F 15% 29.80 in 10.0 mi SW 4.6 mph - N/A   Clear
12:15 PM 82.4 °F 26.6 °F 13% 29.79 in 10.0 mi SW 6.9 mph - N/A   Clear
12:35 PM 84.2 °F 28.4 °F 13% 29.78 in 10.0 mi South 6.9 mph - N/A   Clear
12:55 PM 84.2 °F 26.6 °F 12% 29.77 in 10.0 mi SSW 10.4 mph - N/A   Clear
1:15 PM 86.0 °F 28.4 °F 12% 29.76 in 10.0 mi South 8.1 mph - N/A   Clear
1:35 PM 86.0 °F 26.6 °F 12% 29.75 in 10.0 mi SW 11.5 mph 18.4 mph N/A   Clear
1:55 PM 87.8 °F 28.4 °F 12% 29.74 in 10.0 mi SW 10.4 mph 18.4 mph N/A   Clear
2:15 PM 89.6 °F 24.8 °F 10% 29.73 in 10.0 mi WSW 12.7 mph 20.7 mph N/A   Clear
2:35 PM 89.6 °F 24.8 °F 10% 29.72 in 10.0 mi SW 12.7 mph - N/A   Clear
2:55 PM 89.6 °F 24.8 °F 10% 29.71 in 10.0 mi WSW 19.6 mph 24.2 mph N/A   Clear
3:15 PM 89.6 °F 24.8 °F 10% 29.71 in 10.0 mi SW 16.1 mph 19.6 mph N/A   Clear
3:35 PM 87.8 °F 24.8 °F 10% 29.70 in 10.0 mi SSW 12.7 mph 19.6 mph N/A   Clear
3:55 PM 87.8 °F 24.8 °F 10% 29.69 in 10.0 mi SW 15.0 mph 25.3 mph N/A   Clear
4:15 PM 89.6 °F 23.0 °F 9% 29.69 in 10.0 mi SW 15.0 mph 21.9 mph N/A   Clear
4:35 PM 89.6 °F 23.0 °F 9% 29.68 in 10.0 mi SW 15.0 mph 21.9 mph N/A   Clear
4:55 PM 87.8 °F 23.0 °F 9% 29.68 in 10.0 mi SW 11.5 mph 23.0 mph N/A   Clear
5:15 PM 87.8 °F 23.0 °F 9% 29.68 in 10.0 mi SW 12.7 mph 21.9 mph N/A   Clear
5:35 PM 86.0 °F 24.8 °F 11% 29.67 in 10.0 mi SW 13.8 mph 19.6 mph N/A   Clear
5:55 PM 86.0 °F 24.8 °F 11% 29.68 in 10.0 mi SW 13.8 mph 21.9 mph N/A   Clear
6:15 PM 86.0 °F 23.0 °F 10% 29.67 in 10.0 mi SW 15.0 mph 19.6 mph N/A   Clear
6:35 PM 84.2 °F 24.8 °F 11% 29.67 in 10.0 mi SW 17.3 mph 21.9 mph N/A   Clear
6:55 PM 82.4 °F 24.8 °F 12% 29.67 in 10.0 mi SW 13.8 mph 21.9 mph N/A   Clear
7:15 PM 80.6 °F 26.6 °F 14% 29.67 in 10.0 mi SSW 11.5 mph - N/A   Clear
7:35 PM 80.6 °F 26.6 °F 14% 29.68 in 10.0 mi SW 13.8 mph 19.6 mph N/A   Clear
7:55 PM 80.6 °F 24.8 °F 13% 29.69 in 10.0 mi SW 12.7 mph - N/A   Clear
8:15 PM 77.0 °F 26.6 °F 16% 29.69 in 10.0 mi SSW 8.1 mph - N/A   Clear
8:35 PM 75.2 °F 28.4 °F 18% 29.70 in 10.0 mi SSW 9.2 mph - N/A   Clear
8:55 PM 75.2 °F 26.6 °F 17% 29.70 in 10.0 mi SSW 9.2 mph - N/A   Partly Cloudy
9:15 PM 73.4 °F 26.6 °F 18% 29.71 in 10.0 mi SSW 8.1 mph - N/A   Partly Cloudy
9:35 PM 71.6 °F 26.6 °F 19% 29.71 in 10.0 mi SW 8.1 mph - N/A   Partly Cloudy
9:55 PM 69.8 °F 32.0 °F 25% 29.71 in 10.0 mi South 8.1 mph - N/A   Clear
10:15 PM 73.4 °F 28.4 °F 19% 29.71 in 10.0 mi SW 11.5 mph - N/A   Clear
10:35 PM 71.6 °F 28.4 °F 20% 29.71 in 10.0 mi WSW 8.1 mph - N/A   Partly Cloudy
10:55 PM 68.0 °F 30.2 °F 24% 29.72 in 10.0 mi SW 5.8 mph - N/A   Partly Cloudy
11:15 PM 68.0 °F 30.2 °F 24% 29.73 in 10.0 mi SW 3.5 mph - N/A   Clear
11:35 PM 68.0 °F 30.2 °F 24% 29.73 in 10.0 mi WNW 3.5 mph - N/A   Clear
11:55 PM 68.0 °F 28.4 °F 23% 29.73 in 10.0 mi West 6.9 mph - N/A   Clear